This is the latest recevied weather packets stored in our database for station/object DG4MJS-10. If no packets are shown the sender has not sent any weather packets the latest 10 day(s).
| Time | Temp. | Humidity | Pressure | Rain* | Wind** | Luminosity | Snow |
|---|---|---|---|---|---|---|---|
| 1787459352 | 15° C | 67% | 1022.2 hPa | - | - | - | - |
| 1787458454 | 15° C | 68% | 1022 hPa | - | - | - | - |
| 1787457554 | 15° C | 68% | 1022 hPa | - | - | - | - |
| 1787456654 | 14.44° C | 68% | 1022.1 hPa | - | - | - | - |
| 1787455754 | 15° C | 65% | 1022.1 hPa | - | - | - | - |
| 1787454854 | 15° C | 63% | 1022.2 hPa | - | - | - | - |
| 1787453954 | 15.56° C | 62% | 1022.1 hPa | - | - | - | - |
| 1787453053 | 15.56° C | 63% | 1022.1 hPa | - | - | - | - |
| 1787452153 | 15.56° C | 64% | 1022.2 hPa | - | - | - | - |
| 1787451253 | 15.56° C | 64% | 1022.1 hPa | - | - | - | - |
| 1787450353 | 15.56° C | 65% | 1022.2 hPa | - | - | - | - |
| 1787449453 | 15.56° C | 63% | 1022.1 hPa | - | - | - | - |
| 1787448552 | 16.11° C | 66% | 1022.1 hPa | - | - | - | - |
| 1787447652 | 15.56° C | 66% | 1022 hPa | - | - | - | - |
| 1787446752 | 16.11° C | 65% | 1022.1 hPa | - | - | - | - |
| 1787445852 | 16.67° C | 65% | 1022.1 hPa | - | - | - | - |
| 1787444952 | 16.67° C | 65% | 1022 hPa | - | - | - | - |
| 1787444052 | 16.67° C | 65% | 1022 hPa | - | - | - | - |
| 1787443152 | 16.67° C | 67% | 1022 hPa | - | - | - | - |
| 1787442252 | 16.67° C | 66% | 1022.2 hPa | - | - | - | - |
| 1787441351 | 17.22° C | 65% | 1022.2 hPa | - | - | - | - |
| 1787440451 | 17.22° C | 66% | 1022.2 hPa | - | - | - | - |
| 1787439551 | 17.22° C | 66% | 1022.2 hPa | - | - | - | - |
| 1787438651 | 17.22° C | 66% | 1022.1 hPa | - | - | - | - |
| 1787437751 | 17.22° C | 66% | 1022.4 hPa | - | - | - | - |
* Rain since midnight (hover to see other rain measurements)
** Current wind speed in m/s (hover to see current wind gust speed)